Location: Clinton NY
(43.0598°N, 75.3602°W)
Time: 06:23:17
(UTC-05:00)

ISS - All Passes

Search period start: 21 December 2014 00:00
Search period end: 31 December 2014 00:00
Orbit: 404 x 414 km, 51.6° (Epoch: 21 December)

Date Brightness Start Highest point End Pass type
(mag) Time Alt. Az. Time Alt. Az. Time Alt. Az.
21 Dec - 13:03:27 10° SSW 13:06:33 38° SE 13:09:38 10° ENE daylight
21 Dec - 14:40:05 10° W 14:43:09 35° NNW 14:46:13 10° NE daylight
21 Dec - 16:18:02 10° NW 16:20:24 18° N 16:22:47 10° NE daylight
21 Dec - 17:54:57 10° NW 17:57:46 26° NNE 18:00:35 10° ENE visible
21 Dec - 19:31:20 10° WNW 19:34:36 70° SW 19:37:51 10° SE visible
22 Dec - 12:13:18 10° S 12:15:53 21° SE 12:18:29 10° E daylight
22 Dec - 13:49:01 10° WSW 13:52:15 52° NNW 13:55:30 10° NE daylight
22 Dec - 15:26:51 10° WNW 15:29:22 20° N 15:31:52 10° NE daylight
22 Dec - 17:04:10 10° NW 17:06:46 21° NNE 17:09:22 10° ENE visible
22 Dec - 18:40:31 10° NW 18:43:48 67° NNE 18:47:03 10° ESE visible
22 Dec - 20:17:57 10° W 20:20:02 16° SW 20:22:06 10° S night (unlit)
23 Dec - 11:23:54 10° SSE 11:25:16 12° SE 11:26:37 10° ESE daylight
23 Dec - 12:58:04 10° WSW 13:01:23 87° NNW 13:04:42 10° ENE daylight
23 Dec - 14:35:35 10° WNW 14:38:18 23° NNW 14:41:02 10° NE daylight
23 Dec - 16:13:16 10° NW 16:15:42 19° N 16:18:07 10° NE daylight
23 Dec - 17:49:44 10° NW 17:52:53 42° NNE 17:56:01 10° E visible
23 Dec - 19:26:30 10° WNW 19:29:22 28° SW 19:32:12 10° SSE visible
24 Dec - 12:07:18 10° SW 12:10:32 52° SE 12:13:45 10° ENE daylight
24 Dec - 13:44:17 10° W 13:47:15 29° NNW 13:50:12 10° NE daylight
24 Dec - 15:22:11 10° NW 15:24:33 18° N 15:26:55 10° NE daylight
24 Dec - 16:58:55 10° NW 17:01:52 29° NNE 17:04:48 10° E visible
24 Dec - 18:35:22 10° WNW 18:38:34 51° SW 18:41:45 10° SE visible
25 Dec - 11:16:48 10° SSW 11:19:42 28° SE 11:22:36 10° ENE daylight
25 Dec - 12:53:01 10° W 12:56:11 42° NNW 12:59:21 10° NE daylight
25 Dec - 14:30:56 10° NW 14:33:22 19° N 14:35:48 10° NE daylight
25 Dec - 16:08:02 10° NW 16:10:45 23° NNE 16:13:28 10° ENE daylight
25 Dec - 17:44:22 10° WNW 17:47:40 88° NNE 17:50:57 10° ESE visible
25 Dec - 19:22:33 10° WSW 19:23:46 12° SW 19:24:59 10° SSW visible
26 Dec - 10:26:46 10° S 10:28:54 16° SE 10:31:03 10° E daylight
26 Dec - 12:01:51 10° WSW 12:05:08 67° NNW 12:08:26 10° NE daylight
26 Dec - 13:39:33 10° WNW 13:42:10 21° NNW 13:44:46 10° NE daylight
26 Dec - 15:17:03 10° NW 15:19:33 20° N 15:22:03 10° ENE daylight
26 Dec - 16:53:25 10° NW 16:56:39 52° NNE 16:59:52 10° ESE daylight
26 Dec - 18:30:27 10° W 18:33:00 21° SW 18:35:31 10° S visible
27 Dec - 11:10:50 10° SW 11:14:07 71° SE 11:17:25 10° ENE daylight
27 Dec - 12:48:06 10° WNW 12:50:56 26° NNW 12:53:47 10° NE daylight
27 Dec - 14:25:54 10° NW 14:28:17 18° N 14:30:40 10° NE daylight
27 Dec - 16:02:28 10° NW 16:05:32 35° NNE 16:08:35 10° E daylight
27 Dec - 17:39:03 10° WNW 17:42:07 37° SW 17:45:09 10° SSE visible
28 Dec - 10:20:02 10° SSW 10:23:08 38° SE 10:26:14 10° ENE daylight
28 Dec - 11:56:39 10° W 11:59:43 34° NNW 12:02:47 10° NE daylight
28 Dec - 13:34:35 10° NW 13:36:58 18° N 13:39:21 10° NE daylight
28 Dec - 15:11:28 10° NW 15:14:19 26° NNE 15:17:08 10° ENE daylight
28 Dec - 16:47:50 10° WNW 16:51:07 69° SW 16:54:22 10° SE daylight
29 Dec - 09:29:34 10° S 09:32:10 22° SE 09:34:46 10° E daylight
29 Dec - 11:05:16 10° WSW 11:08:30 52° NNW 11:11:45 10° NE daylight
29 Dec - 12:43:06 10° WNW 12:45:36 20° N 12:48:07 10° NE daylight
29 Dec - 14:20:23 10° NW 14:23:00 21° NNE 14:25:36 10° ENE daylight
29 Dec - 15:56:43 10° NW 16:00:00 68° NNE 16:03:15 10° ESE daylight
29 Dec - 17:34:08 10° W 17:36:12 16° SW 17:38:16 10° S visible
30 Dec - 08:39:51 10° SSE 08:41:13 12° SE 08:42:35 10° ESE daylight
30 Dec - 10:14:01 10° WSW 10:17:19 87° NNW 10:20:38 10° ENE daylight
30 Dec - 11:51:30 10° WNW 11:54:14 23° NNW 11:56:57 10° NE daylight
30 Dec - 13:29:10 10° NW 13:31:36 19° N 13:34:02 10° NE daylight
30 Dec - 15:05:36 10° NW 15:08:46 42° NNE 15:11:55 10° E daylight
30 Dec - 16:42:21 10° WNW 16:45:13 28° SW 16:48:04 10° SSE daylight
